SCP
0 0 0 0 0 0 0 0 0 0 0 0 0 0 0 0 0 0 0 0 0 0 0 0 0 0 0 0 0 0 0 0 0 0 0 0 0 0
0 0 0 0 0 0 0 0 0 0 0 0 0 0 0 0 0 0 0 0 0 0 0 0 0 0 0 0 0 0 0 0 0 0 0 0 0 0
0 0 0 0 0 0 0 0 0 0 0 0 0 0 0 0 0 0 0 0 0 0 0 0 0 0 0 0 0 0 0 0 0 0 0 0 0 0
0 0 0 0 0 0 0 0 0 0 0 0 0 0 0 0 0 0 0 0 0 0 0 0 0 0 0 0 0 0 0 0 0 0 0 0 0 0
0 0 0 0 0 0 0 0 0 0 0 0 0 0 0 0 0 0 0 0 0 0 0 0 0 0 0 0 0 0 0 0 0 0 0 0 0 0
0 0 0 0 0 0 0 0 0 0 0 0 0 0 0 0 0 0 0 0 0 0 0 0 0 0 0 0 0 0 0 0 0 0 -0 -0 0 0
0 0 0 0 0 0 0 0 0 0 0 0 0 0 0 0 0 0 0 0 0 0 0 0 0 0 0 0 0 0 0 0 0 0 0 0 0 0
0 0 0 0 0 0 0 0 0 0 0 0 0 0 0 0 0 0 0 0 0 0 0 0 0 0 0 0 0 0 0 0 0 0 0 0 0 0
0 0 0 0 0 0 0 0 0 0 0 0 0 0 0 0 0 0 0 0 0 0 0 0 0 0 0 0 0 0 0 0 0 0 0 0 0 0
0 0 0 0 0 0 0 0 0 0 0 0 0 0 0 0 0 0 0 0 0 0 0 0 0 0 0 0 0 0 0 0 0 0 0 0 0 0
0 0 0 0 0 0 0 0 0 0 0 0 0 0 0 0 0 0 0 0 0 0 0 0 0 0 0 0 0 0 0 0 0 0 0 0 0 0
0 0 0 0 0 0 0 0 0 0 0 -0 -0 -0 -0 -0 0 0 0 0 0 0 0 0 0 0 0 0 0 0 0 0 0 0 0 0 0 0
0 0 0 0 0 0 0 0 0 0 -0 -0 0 0 0 0 0 0 0 0 0 0 0 0 0 0 0 0 0 0 0 0 0 0 0 0 0 0
0 0 0 0 0 0 0 0 0 0 0 0 0 0 0 0 0 0 0 0 0 0 0 0 0 0 0 0 0 0 0 0 0 0 0 0 0 0
0 0 0 -0 0 0 0 0 0 0 0 0 0 0 0 0 0 0 0 0 0 0 0 0 0 0 0 0 0 0 0 0 0 0 0 0 0 0
0 0 0 0 0 0 0 0 0 0 0 0 0 0 0 0 0 0 0 0 0 0 0 0 0 0 0 0 0 0 0 0 0 0 0 0 0 0
0 0 0 0 0 0 0 0 0 0 0 0 0 0 0 0 0 0 0 0 0 0 0 0 0 0 0 0 0 0 -0 0 0 0 0 0 0 0
0 0 0 0 0 0 0 0 0 0 0 0 0 0 0 0 0 0 0 0 0 0 0 0 0 0 0 0 0 0 0 0 0 0 0 0 0 0
0 0 0 0 0 0 0 0 0 0 0 0 0 0 0 0 0 0 0 0 0 -0 -0 -0 0 -0 -0 -0 0 -0 0 0 0 0 0 0 0 0
0 0 0 0 0 0 0 0 0 0 0 0 0 0 0 0 0 0 -0 -0 -0 -0 -0 -0 -0 -0 -0 -0 0 0 0 0 0 0 0 0 0 0
0 0 0 0 0 0 0 0 0 0 0 0 0 0 0 0 0 -0 -0 -0 -0 -0 -0 0 -0 -0 -0 0 0 0 0 0 0 0 0 0 0 0
0 0 0 0 0 0 0 0 0 0 0 0 0 0 0 0 -0 -0 -0 -0 -0 -0 -0 -0 -0 -0 -0 0 0 0 0 0 0 0 0 0 0 0
0 0 0 0 0 0 0 0 0 0 0 0 0 0 0 -0 -0 -0 -0 -0 -0 -0 -0 -0 -0 -0 -0 0 0 0 0 0 0 0 0 0 0 0
Wind_Speed
1 1 1 2 2 3 4 6 7 6 4 3 2 2 4 4 6 5 5 9 9 8 7 7 6 6 6 6 5 5 5 5 5 5 5 6 7 7
2 3 3 2 3 4 4 4 4 6 5 3 3 4 5 6 7 4 5 11 9 8 7 6 5 5 4 4 4 4 3 3 3 3 4 5 5 6
2 3 4 4 4 4 5 5 5 6 9 5 4 5 5 5 5 4 5 5 5 8 7 6 6 5 4 3 3 2 1 1 1 1 2 4 5 6
3 4 5 4 5 5 5 6 6 6 9 11 6 5 5 6 5 5 6 6 6 9 9 8 7 6 5 4 3 2 2 1 1 2 2 3 4 5
5 5 5 5 6 5 6 6 7 8 7 9 8 5 4 5 5 5 5 4 7 8 9 8 8 7 6 5 5 4 4 3 3 3 4 4 5 6
7 7 6 6 6 7 7 8 8 8 8 8 7 6 5 5 4 3 3 3 3 7 7 8 8 9 8 7 6 6 6 5 5 5 5 5 6 6
9 9 10 12 12 9 8 7 8 7 6 7 6 5 4 4 3 3 4 3 2 3 4 5 5 4 5 7 8 8 8 8 7 7 6 6 7 7
8 8 10 11 14 15 15 12 9 7 6 6 6 6 5 3 2 2 2 3 2 2 2 3 5 5 5 5 9 11 10 9 9 8 8 8 8 8
7 7 9 10 10 9 12 13 12 11 9 6 6 5 5 2 2 2 2 2 2 2 1 1 2 3 4 6 12 12 11 10 10 10 9 9 8 8
9 9 9 9 9 7 9 10 10 9 8 7 6 5 5 3 2 1 2 1 0 1 2 1 1 1 2 4 11 12 12 11 10 10 10 10 9 9
10 11 10 9 12 11 8 9 8 6 9 11 9 7 6 5 3 2 1 1 1 1 0 0 0 0 1 3 6 12 12 11 11 11 10 10 10 8
7 9 13 11 11 11 7 7 7 5 5 5 4 2 2 2 1 1 1 1 1 1 1 1 1 1 1 1 2 4 6 10 12 12 12 12 10 5
6 6 6 10 12 11 8 6 5 2 2 2 2 2 1 1 1 1 2 2 2 1 1 2 2 1 1 2 2 2 4 4 4 6 11 14 13 8
6 5 5 8 8 7 5 5 5 3 0 1 2 2 2 1 1 2 2 1 1 1 1 0 1 1 2 2 2 2 2 3 3 4 4 8 11 12
5 5 4 4 3 3 4 5 4 1 2 3 3 2 2 1 1 0 1 1 2 3 3 2 2 2 2 2 3 2 2 3 2 2 2 3 4 4
3 3 2 2 2 2 2 2 2 3 3 2 2 1 1 0 1 1 1 1 2 2 3 4 4 3 3 4 3 3 3 2 2 2 2 3 3 4
3 1 1 1 1 1 1 1 2 2 2 2 2 1 1 1 0 0 1 2 2 1 2 2 4 5 6 4 3 3 3 3 3 2 2 3 4 4
3 1 1 1 2 2 2 1 2 2 2 2 2 2 2 2 1 1 1 1 2 2 2 2 2 2 2 3 4 3 3 2 2 3 3 3 4 4
2 1 2 2 2 2 2 2 2 2 1 2 2 2 2 2 2 2 2 2 2 2 2 2 2 2 2 3 3 4 3 3 3 3 3 3 3 4
1 1 2 1 1 2 2 2 2 1 1 2 2 2 2 2 2 2 2 2 2 3 3 3 2 1 2 3 3 4 7 5 3 4 4 3 4 4
1 2 2 2 2 2 2 1 1 1 1 1 1 1 2 2 2 2 2 3 3 3 3 3 2 3 3 3 4 4 4 9 9 5 4 3 4 4
2 2 2 2 1 1 0 1 1 0 1 1 1 1 1 2 3 3 3 3 3 3 3 3 3 3 3 4 5 5 5 4 9 13 12 9 4 4
2 1 0 1 0 0 1 2 2 1 1 1 2 2 2 2 3 3 3 4 4 4 4 3 3 3 4 4 4 5 6 6 4 4 5 12 17 18
Wind_Direction
24 58 111 117 125 125 135 144 143 144 143 148 131 124 119 120 138 127 128 131 124 119 117 116 116 112 107 101 96 89 83 73 63 53 43 34 27 21
57 68 74 88 108 118 126 119 119 131 132 136 139 148 145 147 150 141 142 144 138 137 137 137 134 131 125 119 111 101 89 78 64 47 33 23 15 7
72 91 95 100 108 115 119 122 119 117 123 124 130 140 138 137 143 154 151 151 151 160 159 158 156 158 153 146 140 132 115 95 57 15 7 2 355 351
70 86 95 103 108 116 121 126 127 125 130 132 135 140 147 148 160 169 166 168 163 172 173 174 175 178 180 181 179 184 195 226 262 286 302 314 324 331
66 78 84 92 98 103 111 116 118 120 119 127 133 140 148 160 166 182 168 157 170 168 180 189 192 193 196 196 201 207 216 235 251 265 276 287 301 312
64 69 71 79 93 104 104 106 113 116 121 127 136 145 148 163 167 171 158 179 172 170 178 183 195 201 205 206 211 217 222 231 244 256 266 277 286 295
74 75 75 79 79 87 96 103 113 118 126 132 135 138 145 155 173 177 161 169 177 160 165 180 178 192 204 215 219 223 226 230 238 250 262 271 279 283
87 88 87 82 84 86 89 91 96 107 115 121 126 131 133 138 142 159 142 145 165 170 169 192 175 192 198 197 207 214 222 230 237 247 256 265 271 276
71 77 84 79 75 86 89 84 76 75 86 100 105 112 112 109 108 100 98 121 146 176 155 214 195 194 191 186 194 208 219 228 237 245 254 261 265 269
61 65 72 66 58 65 86 83 75 63 69 77 82 83 81 61 49 84 128 128 123 179 147 195 209 180 156 168 199 209 219 229 238 246 254 260 265 269
61 57 61 60 48 61 81 90 90 85 79 83 86 91 88 76 52 28 37 81 136 161 133 166 224 177 185 191 208 215 225 232 240 248 254 259 264 271
78 67 57 55 52 58 67 78 81 79 91 99 94 102 122 109 72 39 10 42 98 102 43 18 349 9 314 245 197 198 226 241 242 247 251 255 259 260
83 71 53 51 55 56 63 70 74 60 94 125 138 140 134 124 124 95 52 57 64 49 34 23 351 353 329 299 271 219 210 220 220 237 242 245 247 234
72 74 65 54 52 49 55 42 28 4 14 113 108 101 103 97 81 83 69 61 116 175 251 322 305 313 312 306 291 273 254 235 215 220 225 231 238 238
72 79 76 57 37 47 45 17 2 3 69 74 76 84 103 114 109 117 250 261 262 255 233 215 231 274 296 284 280 277 277 270 241 229 230 227 226 216
83 92 78 50 17 18 22 15 36 50 56 68 71 62 48 133 222 217 229 244 251 262 238 226 230 234 256 274 277 284 285 278 273 256 254 267 258 227
339 244 198 182 153 115 77 64 65 68 57 41 34 25 26 22 355 325 286 290 286 276 261 247 241 231 230 235 261 275 280 281 279 273 266 275 273 258
350 309 127 115 104 97 90 80 73 61 43 30 22 22 16 0 340 320 308 320 325 316 302 286 284 294 294 272 223 242 275 278 282 285 280 279 282 274
327 333 73 69 64 68 79 70 77 80 39 8 10 14 357 333 329 334 341 341 326 317 305 295 296 310 315 310 281 232 243 273 285 285 275 270 273 273
261 62 83 83 67 55 60 56 50 61 45 10 5 359 343 328 327 330 330 335 322 310 302 296 293 290 284 284 285 270 228 230 255 268 277 280 277 274
64 58 52 58 65 68 73 77 32 33 57 336 315 319 321 318 326 329 323 315 295 287 296 293 274 253 250 266 272 271 252 220 225 232 249 266 280 287
50 53 52 40 31 3 231 194 215 209 225 266 288 317 320 319 320 318 315 310 303 302 307 298 285 269 265 268 273 276 275 257 239 245 247 235 229 242
48 8 269 194 205 274 10 13 345 325 7 5 352 339 327 317 307 300 297 299 302 307 308 303 304 301 295 290 288 286 288 283 270 254 253 245 238 243